Regional Weather Roundup
Issued by NWS

Home | Current Version | Previous Version | Graphics & Text | Print | Product List | Glossary On
Versions: 1 2 3 4 5 6 7 8 9 10 11 12 13 14 15 16 17 18 19 20 21 22 23 24 25 26 27 28 29 30 31 32 33 34 35 36 37 38 39 40 41 42 43 44 45 46 47 48 49 50
000
ASUS43 KLSX 061359
RWRMO

WEATHER SUMMARY FOR MISSOURI
NATIONAL WEATHER SERVICE SPRINGFIELD MO
800 AM CST FRI MAR 06 2015

NOTE: "FAIR" INDICATES FEW OR NO CLOUDS BELOW 12,000 FEET WITH NO
       SIGNIFICANT WEATHER AND/OR OBSTRUCTIONS TO VISIBILITY.
       CURRENT SKY AND/OR WEATHER CONDITIONS ARE NOT AVAILABLE FOR
       CHILLICOTHE AND FARMINGTON.

MOZ001>031-035>038-043-044-053-054-061500-
...NORTHERN AND WESTERN MISSOURI...

CITY           SKY/WX    TMP DP  RH WIND       PRES   REMARKS
KANSAS CTY INT MOSUNNY   32  19  58 SW16      30.29R WCI  21
KANSAS C DTWN  SUNNY     35  19  52 SW15      30.31R WCI  25
LEE`S SUMMIT   SUNNY     31  18  58 SW16G22   30.31S WCI  20
ST JOSEPH      SUNNY     30  21  69 S8        30.29R WCI  22
CHILLICOTHE      N/A     27  17  66 S10       30.30S WCI  17
KIRKSVILLE     MOSUNNY   24  14  65 S15       30.28F WCI  11

$$
MOZ066>068-077>081-088>096-101>105-061500-
...SOUTHWEST MISSOURI...

CITY           SKY/WX    TMP DP  RH WIND       PRES   REMARKS
SPRINGFIELD    SUNNY     25  16  68 S13       30.44R WCI  14
JOPLIN         SUNNY     32  18  56 SW15      30.45S WCI  22

$$
MOZ032>034-039>042-045>050-055>058-069>072-061500-
...CENTRAL MISSOURI...

CITY           SKY/WX    TMP DP  RH WIND       PRES   REMARKS
COLUMBIA       SUNNY     23  12  62 S12       30.40S WCI  12
JEFFERSON CITY SUNNY     25  12  58 S9        30.44F WCI  15
ROLLA          SUNNY     23  10  57 S16       30.42F WCI  10
SEDALIA        SUNNY     29  16  58 SW18      30.37S WCI  16
OSAGE BEACH    SUNNY     25  10  54 S7        30.42S WCI  17

$$
MOZ051-052-059>065-061500-
...EAST CENTRAL MISSOURI...

CITY           SKY/WX    TMP DP  RH WIND       PRES   REMARKS
ST LOUIS INTL  MOSUNNY   20   9  62 S9        30.50F WCI   9
SPIRIT OF STL  SUNNY     20  10  65 VRB6      30.50F WCI  12
ST CHARLES     SUNNY     17  10  74 S7        30.51F WCI   8

$$
MOZ072>076-082>087-097>100-106>115-061500-
...SOUTH CENTRAL AND SOUTHEAST MISSOURI...

CITY           SKY/WX    TMP DP  RH WIND       PRES   REMARKS
CAPE GIRARDEAU MOSUNNY    5   5 100 CALM      30.62R FOG
FARMINGTON     SUNNY     14   9  79 S8        30.54S WCI   3
POPLAR BLUFF   SUNNY     15  11  83 CALM      30.61R
WEST PLAINS    SUNNY     19   7  59 S8        30.51R WCI   9

$$


USA.gov is the U.S. government's official web portal to all federal, state and local government web resources and services.